Location: Sabana Grande
(18.0777°N, 66.9605°W)
Time: 19:25:08
(UTC-04:00)

ARIANE 6 FM1 Upper Stage - Pass Details

Date: 20 September 2024
Orbit: 563 x 595 km, 62.0° (Epoch: 14 October)

Event Time Altitude Azimuth Distance (km) Brightness Sun altitude
Rises 18:56:45 0° 205° (SSW) 2,745 6.5 -8.3°
Reaches altitude 10° 18:58:58 10° 205° (SSW) 1,854 5.6 -8.8°
Maximum altitude 19:03:09 86° 117° (ESE) 573 2.6 -9.8°
Drops below altitude 10° 19:07:23 10° 28° (NNE) 1,876 5.1 -10.8°
Sets 19:09:38 0° 28° (NNE) 2,781 6.0 -11.4°
